(367958) = 2005 EX66 = 2012 DZ64

Discovered at Mount Lemmon on 2005-03-04 by Mt. Lemmon Survey.

Orbit

Orbit type: Main Belt

Note: WebGL enabled browser required.

epoch2023-02-25.0
epoch JD2460000.5
perihelion date2022-01-21.49577
perihelion JD2459600.99577
argument of perihelion (°)95.70826
ascending node (°)351.89210
inclination (°)7.18994
eccentricity0.0447254
perihelion distance (AU)2.2123974
Tisserand w.r.t. Jupiter3.6
ΔV w.r.t. Earth (km/sec)9.5
semimajor axis (AU)2.3159806
mean anomaly (°)111.71792
mean daily motion (°/day)0.27964140
aphelion distance (AU)2.420
period (years)3.52
P-vector [x]0.04076581
P-vector [y]0.86003208
P-vector [z]0.50860886
Q-vector [x]-0.99901279
Q-vector [y]0.04407658
Q-vector [z]0.00554118
absolute magnitude17.71
phase slope0.15
uncertainty0
referenceMPO 745323
observations used146
oppositions10
arc length (days)6655
first opposition used2005
last opposition used2023
residual rms (arc-secs)0.72
perturbers coarse indicatorM-v
perturbers precise indicator003Ek
first observation date used2005-03-04.0
last observation date used2023-05-24.0
computer nameMPCLINUX
Minimum Orbit Intersection Distances (in AU)
for orbit epoch: 2460000.5, reference: E2023-KE2
Mercury1.90198
Venus1.4993
Earth1.24159
Mars0.59385
Jupiter2.64424
Saturn6.87769
Uranus16.1425
Neptune27.5799

Observations

148 total observations over interval: 2005 03 04.40577 – 2023 05 24.354578
These data are available for download (format description).

